| time (UTC) | temp F | wind direction | speed MPH | gust MPH | rain 1hr in | rain 24hr in | rain mn in | humidity % | barometer mb |
| 20260507003355 | 58 | 337 | 10.0 | 33.0 | 0.00 | 0.00 | 0.00 | 1 | 1018.3 |
| 20260507002854 | 59 | 295 | 12.0 | 33.0 | 0.00 | 0.00 | 0.00 | 1 | 1018.4 |
| 20260507002355 | 59 | 338 | 8.0 | 30.0 | 0.00 | 0.00 | 0.00 | 1 | 1018.4 |
| 20260507001855 | 59 | 275 | 10.0 | 31.0 | 0.00 | 0.00 | 0.00 | 1 | 1018.3 |
| 20260507001357 | 58 | 272 | 10.0 | 31.0 | 0.00 | 0.00 | 0.00 | 1 | 1018.4 |
| 20260507000857 | 59 | 262 | 19.0 | 30.0 | 0.00 | 0.00 | 0.00 | 1 | 1018.4 |
| 20260507000725 | 60 | 266 | 10.0 | 23.0 | 0.00 | 3.84 | 0.00 | 1 | 1018.6 |
| 20260507000719 | 60 | 0 | 10.0 | 23.0 | 0.00 | 3.84 | 0.00 | 1 | 1018.5 |
| 20260506235355 | 60 | 165 | 9.0 | 28.0 | 0.00 | 3.84 | 0.00 | 1 | 1018.5 |
| 20260506234855 | 60 | 278 | 11.0 | 28.0 | 0.00 | 3.84 | 0.00 | 1 | 1018.5 |
| 20260506234356 | 60 | 216 | 8.0 | 28.0 | 0.00 | 3.84 | 0.00 | 1 | 1018.6 |
| 20260506233856 | 60 | 286 | 10.0 | 28.0 | 0.00 | 3.84 | 0.00 | 1 | 1018.6 |
| 20260506233354 | 60 | 329 | 7.0 | 24.0 | 0.00 | 3.84 | 0.00 | 1 | 1018.6 |
| 20260506232857 | 60 | 0 | 7.0 | 27.0 | 0.00 | 3.84 | 0.00 | 1 | 1018.6 |
| 20260506232355 | 60 | 157 | 9.0 | 27.0 | 0.00 | 3.84 | 0.00 | 1 | 1018.7 |
| 20260506231854 | 61 | 290 | 7.0 | 22.0 | 0.00 | 3.84 | 0.00 | 1 | 1018.7 |
| 20260506231354 | 61 | 259 | 6.0 | 30.0 | 0.00 | 3.84 | 0.00 | 1 | 1018.6 |
| 20260506230853 | 61 | 283 | 12.0 | 30.0 | 0.00 | 3.84 | 0.00 | 1 | 1018.7 |
| 20260506230355 | 61 | 300 | 10.0 | 28.0 | 0.00 | 3.84 | 0.00 | 1 | 1018.7 |
| 20260506225854 | 61 | 324 | 7.0 | 28.0 | 0.00 | 3.84 | 0.00 | 1 | 1018.8 |
| 20260506225355 | 61 | 278 | 8.0 | 28.0 | 0.00 | 3.84 | 0.00 | 1 | 1018.8 |
| 20260506224854 | 61 | 295 | 8.0 | 23.0 | 0.00 | 3.84 | 0.00 | 1 | 1018.8 |
| 20260506224641 | 61 | 37 | 7.0 | 30.0 | 0.00 | 3.84 | 0.00 | 1 | 1018.9 |
| 20260506223853 | 61 | 299 | 9.0 | 30.0 | 0.00 | 3.84 | 0.00 | 1 | 1019.1 |
| 20260506223354 | 61 | 268 | 12.0 | 28.0 | 0.00 | 3.84 | 0.00 | 1 | 1019.2 |
| 20260506222854 | 61 | 293 | 10.0 | 29.0 | 0.00 | 3.84 | 0.00 | 1 | 1019.2 |
| 20260506222355 | 61 | 286 | 9.0 | 29.0 | 0.00 | 3.84 | 0.00 | 1 | 1019.3 |
| 20260506221855 | 62 | 286 | 10.0 | 29.0 | 0.00 | 3.84 | 0.00 | 1 | 1019.4 |
| 20260506221352 | 62 | 10 | 9.0 | 23.0 | 0.00 | 3.84 | 0.00 | 1 | 1019.4 |
| 20260506220854 | 62 | 237 | 6.0 | 23.0 | 0.00 | 3.84 | 0.00 | 1 | 1019.4 |
| 20260506220352 | 63 | 278 | 8.0 | 27.0 | 0.00 | 3.84 | 0.00 | 1 | 1019.5 |
| 20260506215853 | 63 | 234 | 8.0 | 27.0 | 0.00 | 3.84 | 0.00 | 1 | 1019.5 |
| 20260506215353 | 63 | 264 | 10.0 | 26.0 | 0.00 | 3.84 | 0.00 | 1 | 1019.6 |
| 20260506214852 | 63 | 276 | 9.0 | 26.0 | 0.00 | 3.84 | 0.00 | 1 | 1019.7 |
| 20260506214352 | 64 | 224 | 9.0 | 26.0 | 0.00 | 3.84 | 0.00 | 1 | 1019.7 |
| 20260506213852 | 63 | 118 | 7.0 | 23.0 | 0.00 | 3.84 | 0.00 | 1 | 1019.7 |
| 20260506213351 | 64 | 83 | 11.0 | 23.0 | 0.00 | 3.84 | 0.00 | 1 | 1019.6 |
| 20260506212852 | 64 | 250 | 6.0 | 24.0 | 0.00 | 3.84 | 0.00 | 1 | 1019.8 |
| 20260506212353 | 64 | 285 | 9.0 | 24.0 | 0.00 | 3.84 | 0.00 | 1 | 1019.7 |
| 20260506211853 | 64 | 34 | 7.0 | 20.0 | 0.00 | 3.84 | 0.00 | 1 | 1019.7 |
| 20260506211352 | 64 | 152 | 8.0 | 20.0 | 0.00 | 3.84 | 0.00 | 1 | 1019.7 |
| 20260506210852 | 64 | 255 | 5.0 | 18.0 | 0.00 | 3.84 | 0.00 | 1 | 1019.7 |
| 20260506210351 | 64 | 261 | 5.0 | 20.0 | 0.00 | 3.84 | 0.00 | 1 | 1019.7 |
| 20260506205852 | 64 | 221 | 10.0 | 20.0 | 0.00 | 3.84 | 0.00 | 1 | 1019.7 |
| 20260506205349 | 63 | 282 | 4.0 | 21.0 | 0.00 | 3.84 | 0.00 | 1 | 1019.8 |
| 20260506204852 | 63 | 274 | 6.0 | 21.0 | 0.00 | 3.84 | 0.00 | 1 | 1019.9 |
| 20260506204351 | 64 | 0 | 8.0 | 21.0 | 0.00 | 3.84 | 0.00 | 1 | 1019.8 |
| 20260506203851 | 64 | 17 | 7.0 | 18.0 | 0.00 | 3.84 | 0.00 | 1 | 1019.8 |
| 20260506203351 | 64 | 114 | 5.0 | 18.0 | 0.00 | 3.84 | 0.00 | 1 | 1019.9 |
| 20260506202850 | 64 | 107 | 6.0 | 18.0 | 0.00 | 3.84 | 0.00 | 1 | 1020.0 |
| 20260506202350 | 64 | 244 | 7.0 | 23.0 | 0.00 | 3.84 | 0.00 | 1 | 1020.0 |
| 20260506201852 | 64 | 347 | 9.0 | 23.0 | 0.00 | 3.84 | 0.00 | 1 | 1020.0 |
| 20260506201352 | 64 | 274 | 5.0 | 20.0 | 0.00 | 3.84 | 0.00 | 1 | 1020.1 |
| 20260506200851 | 64 | 244 | 9.0 | 20.0 | 0.00 | 3.84 | 0.00 | 1 | 1020.2 |
| 20260506200640 | 64 | 276 | 8.0 | 19.0 | 0.00 | 3.84 | 0.00 | 1 | 1020.2 |
| 20260506195850 | 66 | 261 | 9.0 | 19.0 | 0.00 | 3.84 | 0.00 | 1 | 1020.3 |
| 20260506195350 | 66 | 258 | 3.0 | 18.0 | 0.00 | 3.84 | 0.00 | 1 | 1020.3 |
| 20260506194850 | 67 | 34 | 4.0 | 14.0 | 0.00 | 3.84 | 0.00 | 1 | 1020.3 |
| 20260506194350 | 67 | 329 | 4.0 | 14.0 | 0.00 | 3.84 | 0.00 | 1 | 1020.4 |
| 20260506193849 | 66 | 314 | 3.0 | 12.0 | 0.00 | 3.84 | 0.00 | 1 | 1020.4 |
| 20260506193350 | 66 | 265 | 4.0 | 16.0 | 0.00 | 3.84 | 0.00 | 1 | 1020.3 |
| 20260506192850 | 65 | 313 | 6.0 | 16.0 | 0.00 | 3.84 | 0.00 | 1 | 1020.6 |
| 20260506192350 | 65 | 354 | 6.0 | 15.0 | 0.00 | 3.84 | 0.00 | 1 | 1020.4 |
| 20260506191848 | 65 | 90 | 4.0 | 16.0 | 0.00 | 3.84 | 0.00 | 1 | 1020.7 |
| 20260506191423 | 67 | 244 | 9.0 | 17.0 | 0.00 | 3.84 | 0.00 | 1 | 1020.7 |
| 20260506191411 | 65 | 330 | 4.0 | 17.0 | 0.00 | 3.84 | 0.00 | 1 | 1020.6 |
| 20260506190639 | 67 | 0 | 2.0 | 12.0 | 0.00 | 3.84 | 0.00 | 1 | 1020.7 |
| 20260506185848 | 66 | 274 | 4.0 | 12.0 | 0.00 | 3.84 | 0.00 | 1 | 1020.7 |
| 20260506185348 | 66 | 268 | 6.0 | 12.0 | 0.00 | 3.84 | 0.00 | 1 | 1020.7 |
| 20260506184849 | 66 | 110 | 4.0 | 12.0 | 0.00 | 3.84 | 0.00 | 1 | 1020.7 |
| 20260506184350 | 65 | 59 | 2.0 | 10.0 | 0.00 | 3.84 | 0.00 | 1 | 1020.6 |
| 20260506183848 | 64 | 106 | 3.0 | 13.0 | 0.00 | 3.84 | 0.00 | 1 | 1020.7 |
| 20260506183348 | 64 | 18 | 2.0 | 13.0 | 0.00 | 3.84 | 0.00 | 1 | 1020.8 |
| 20260506182849 | 63 | 298 | 3.0 | 12.0 | 0.00 | 3.84 | 0.00 | 1 | 1020.7 |
| 20260506182347 | 62 | 238 | 4.0 | 16.0 | 0.00 | 3.84 | 0.00 | 1 | 1020.8 |
| 20260506182132 | 62 | 235 | 6.0 | 16.0 | 0.00 | 3.84 | 0.00 | 1 | 1020.8 |
| 20260506181348 | 62 | 241 | 9.0 | 14.0 | 0.00 | 3.84 | 0.00 | 1 | 1020.7 |
| 20260506180847 | 62 | 336 | 4.0 | 13.0 | 0.00 | 3.84 | 0.00 | 1 | 1020.7 |
| 20260506180347 | 61 | 282 | 4.0 | 13.0 | 0.00 | 3.84 | 0.00 | 1 | 1020.7 |
| 20260506175847 | 62 | 223 | 6.0 | 13.0 | 0.00 | 3.84 | 0.00 | 1 | 1020.6 |
| 20260506175348 | 62 | 0 | 6.0 | 13.0 | 0.00 | 3.84 | 0.00 | 1 | 1020.6 |
| 20260506174848 | 62 | 216 | 6.0 | 13.0 | 0.00 | 3.84 | 0.00 | 1 | 1020.7 |
| 20260506174348 | 62 | 324 | 5.0 | 13.0 | 0.00 | 3.84 | 0.00 | 1 | 1020.4 |
| 20260506173847 | 62 | 303 | 2.0 | 6.0 | 0.00 | 3.84 | 0.00 | 1 | 1020.4 |
| 20260506173347 | 62 | 265 | 2.0 | 9.0 | 0.00 | 3.84 | 0.00 | 1 | 1020.6 |
| 20260506172848 | 62 | 345 | 3.0 | 9.0 | 0.00 | 3.84 | 0.00 | 1 | 1020.4 |
| 20260506172346 | 61 | 306 | 2.0 | 10.0 | 0.00 | 3.85 | 0.00 | 1 | 1020.6 |
| 20260506172131 | 61 | 350 | 5.0 | 11.0 | 0.00 | 3.85 | 0.00 | 1 | 1020.6 |
| 20260506171634 | 61 | 341 | 4.0 | 11.0 | 0.00 | 3.85 | 0.00 | 1 | 1020.7 |
| 20260506170921 | 61 | 268 | 2.0 | 12.0 | 0.00 | 3.85 | 0.00 | 1 | 1020.8 |
| 20260506170910 | 61 | 281 | 1.0 | 7.0 | 0.00 | 3.85 | 0.00 | 1 | 1020.7 |
| 20260506165845 | 61 | 51 | 2.0 | 12.0 | 0.00 | 3.85 | 0.00 | 1 | 1020.6 |
| 20260506165346 | 61 | 348 | 4.0 | 11.0 | 0.00 | 3.85 | 0.00 | 1 | 1020.7 |
| 20260506164845 | 61 | 258 | 7.0 | 11.0 | 0.00 | 3.85 | 0.00 | 1 | 1020.7 |
| 20260506164345 | 62 | 185 | 3.0 | 9.0 | 0.00 | 3.85 | 0.00 | 1 | 1020.7 |
| 20260506163846 | 62 | 241 | 5.0 | 9.0 | 0.00 | 3.85 | 0.00 | 1 | 1020.7 |
| 20260506163345 | 62 | 87 | 3.0 | 6.0 | 0.00 | 3.85 | 0.00 | 1 | 1020.6 |
| 20260506162846 | 61 | 333 | 2.0 | 6.0 | 0.00 | 3.85 | 0.00 | 1 | 1020.6 |
| 20260506162345 | 61 | 13 | 3.0 | 6.0 | 0.00 | 3.85 | 0.00 | 1 | 1020.6 |
| 20260506161845 | 61 | 227 | 1.0 | 6.0 | 0.00 | 3.85 | 0.00 | 1 | 1020.7 |
| 20260506161345 | 60 | 59 | 1.0 | 9.0 | 0.00 | 3.85 | 0.00 | 1 | 1020.7 |
| 20260506160844 | 60 | 214 | 1.0 | 9.0 | 0.00 | 3.85 | 0.00 | 1 | 1020.7 |
| 20260506160345 | 60 | 230 | 3.0 | 7.0 | 0.00 | 3.85 | 0.00 | 1 | 1020.6 |
| 20260506155846 | 59 | 250 | 3.0 | 7.0 | 0.00 | 3.85 | 0.00 | 1 | 1020.4 |
| 20260506155344 | 59 | 8 | 2.0 | 4.0 | 0.00 | 3.85 | 0.00 | 1 | 1020.6 |
| 20260506154844 | 58 | 250 | 1.0 | 6.0 | 0.00 | 3.85 | 0.00 | 1 | 1020.6 |
| 20260506154345 | 58 | 320 | 2.0 | 6.0 | 0.00 | 3.85 | 0.00 | 1 | 1020.7 |
| 20260506153844 | 57 | 330 | 1.0 | 5.0 | 0.00 | 3.85 | 0.00 | 1 | 1020.6 |
| 20260506153345 | 57 | 340 | 1.0 | 4.0 | 0.00 | 3.85 | 0.00 | 1 | 1020.6 |
| 20260506152844 | 57 | 265 | 0.0 | 4.0 | 0.00 | 3.85 | 0.00 | 1 | 1020.6 |
| 20260506152344 | 57 | 321 | 1.0 | 5.0 | 0.00 | 3.85 | 0.00 | 1 | 1020.6 |
| 20260506151843 | 56 | 34 | 1.0 | 6.0 | 0.00 | 3.85 | 0.00 | 1 | 1020.6 |
| 20260506151424 | 56 | 312 | 2.0 | 6.0 | 0.00 | 3.85 | 0.00 | 1 | 1020.4 |
| 20260506151412 | 56 | 344 | 2.0 | 6.0 | 0.00 | 3.85 | 0.00 | 1 | 1020.6 |
| 20260506150343 | 55 | 330 | 2.0 | 6.0 | 0.00 | 3.85 | 0.00 | 1 | 1020.4 |
| 20260506150131 | 55 | 207 | 1.0 | 5.0 | 0.00 | 3.85 | 0.00 | 1 | 1020.4 |
| 20260506145629 | 55 | 286 | 2.0 | 7.0 | 0.00 | 3.85 | 0.00 | 1 | 1020.4 |
| 20260506144844 | 54 | 320 | 3.0 | 9.0 | 0.00 | 3.85 | 0.00 | 1 | 1020.3 |
| 20260506144344 | 54 | 290 | 2.0 | 9.0 | 0.00 | 3.85 | 0.00 | 1 | 1020.3 |
| 20260506143844 | 54 | 32 | 1.0 | 7.0 | 0.00 | 3.85 | 0.00 | 1 | 1020.3 |
| 20260506143344 | 54 | 323 | 2.0 | 11.0 | 0.00 | 3.85 | 0.00 | 1 | 1020.3 |
| 20260506142844 | 54 | 45 | 4.0 | 11.0 | 0.00 | 3.85 | 0.00 | 1 | 1020.2 |
| 20260506142343 | 54 | 42 | 2.0 | 11.0 | 0.00 | 3.85 | 0.00 | 1 | 1020.1 |
| 20260506141842 | 54 | 243 | 3.0 | 14.0 | 0.00 | 3.85 | 0.00 | 1 | 1020.0 |
| 20260506141341 | 54 | 259 | 4.0 | 14.0 | 0.00 | 3.85 | 0.00 | 1 | 1020.0 |
| 20260506140842 | 54 | 0 | 3.0 | 10.0 | 0.00 | 3.85 | 0.00 | 1 | 1020.0 |
| 20260506140341 | 54 | 345 | 4.0 | 11.0 | 0.00 | 3.85 | 0.00 | 1 | 1019.9 |
| 20260506135842 | 54 | 0 | 3.0 | 11.0 | 0.00 | 3.85 | 0.00 | 1 | 1019.9 |
| 20260506135341 | 54 | 51 | 1.0 | 11.0 | 0.00 | 3.85 | 0.00 | 1 | 1019.8 |
| 20260506134842 | 53 | 27 | 4.0 | 11.0 | 0.00 | 3.85 | 0.00 | 1 | 1019.7 |
| 20260506134341 | 53 | 268 | 4.0 | 9.0 | 0.00 | 3.85 | 0.00 | 1 | 1019.7 |
| 20260506134127 | 53 | 35 | 3.0 | 10.0 | 0.00 | 3.85 | 0.00 | 1 | 1019.6 |
| 20260506133341 | 53 | 283 | 3.0 | 12.0 | 0.00 | 3.85 | 0.00 | 1 | 1019.7 |
| 20260506133202 | 53 | 309 | 2.0 | 10.0 | 0.00 | 3.85 | 0.00 | 1 | 1019.6 |
| 20260506133156 | 53 | 350 | 4.0 | 12.0 | 0.00 | 3.85 | 0.00 | 1 | 1019.7 |
| 20260506131840 | 53 | 120 | 3.0 | 10.0 | 0.00 | 3.85 | 0.00 | 1 | 1019.7 |
| 20260506131341 | 53 | 272 | 3.0 | 10.0 | 0.00 | 3.85 | 0.00 | 1 | 1019.6 |
| 20260506130841 | 53 | 295 | 1.0 | 9.0 | 0.00 | 3.85 | 0.00 | 1 | 1019.6 |
| 20260506130340 | 53 | 123 | 4.0 | 10.0 | 0.00 | 3.85 | 0.00 | 1 | 1019.5 |
| 20260506125840 | 54 | 92 | 4.0 | 10.0 | 0.00 | 3.85 | 0.00 | 1 | 1019.5 |
| 20260506125342 | 54 | 278 | 3.0 | 10.0 | 0.00 | 3.85 | 0.00 | 1 | 1019.5 |
| 20260506124914 | 54 | 121 | 3.0 | 10.0 | 0.00 | 3.85 | 0.00 | 1 | 1019.5 |
| 20260506124905 | 54 | 0 | 3.0 | 9.0 | 0.00 | 3.85 | 0.00 | 1 | 1019.5 |
| 20260506123841 | 54 | 117 | 3.0 | 10.0 | 0.00 | 3.85 | 0.00 | 1 | 1019.4 |
| 20260506123342 | 54 | 307 | 2.0 | 7.0 | 0.00 | 3.85 | 0.00 | 1 | 1019.4 |
| 20260506122839 | 54 | 252 | 2.0 | 7.0 | 0.00 | 3.85 | 0.00 | 1 | 1019.3 |
| 20260506122624 | 54 | 330 | 2.0 | 10.0 | 0.00 | 3.85 | 0.00 | 1 | 1019.4 |
| 20260506122208 | 53 | 162 | 2.0 | 9.0 | 0.00 | 3.85 | 0.00 | 1 | 1019.2 |
| 20260506122203 | 54 | 266 | 3.0 | 10.0 | 0.00 | 3.85 | 0.00 | 1 | 1019.4 |
| 20260506120840 | 53 | 265 | 3.0 | 9.0 | 0.00 | 3.85 | 0.00 | 1 | 1019.3 |
| 20260506120339 | 53 | 316 | 4.0 | 9.0 | 0.00 | 3.85 | 0.00 | 1 | 1019.2 |
| 20260506115840 | 53 | 175 | 3.0 | 7.0 | 0.00 | 3.85 | 0.00 | 1 | 1019.2 |
| 20260506115340 | 53 | 90 | 1.0 | 9.0 | 0.00 | 3.85 | 0.00 | 1 | 1019.2 |
| 20260506114839 | 53 | 23 | 2.0 | 11.0 | 0.00 | 3.85 | 0.00 | 1 | 1019.3 |
| 20260506114338 | 53 | 0 | 3.0 | 12.0 | 0.00 | 3.85 | 0.00 | 1 | 1019.2 |
| 20260506113840 | 53 | 265 | 4.0 | 12.0 | 0.00 | 3.85 | 0.00 | 1 | 1019.1 |
| 20260506113338 | 53 | 0 | 4.0 | 12.0 | 0.00 | 3.85 | 0.00 | 1 | 1019.1 |
| 20260506112839 | 53 | 97 | 2.0 | 12.0 | 0.00 | 3.85 | 0.00 | 1 | 1019.1 |
| 20260506112339 | 53 | 169 | 3.0 | 10.0 | 0.00 | 3.85 | 0.00 | 1 | 1019.0 |
| 20260506111838 | 53 | 49 | 2.0 | 10.0 | 0.00 | 3.85 | 0.00 | 1 | 1019.0 |
| 20260506111338 | 53 | 0 | 3.0 | 10.0 | 0.00 | 3.85 | 0.00 | 1 | 1018.9 |
| 20260506110838 | 53 | 16 | 3.0 | 13.0 | 0.00 | 3.85 | 0.00 | 1 | 1019.0 |
| 20260506110339 | 53 | 0 | 6.0 | 13.0 | 0.00 | 3.85 | 0.00 | 1 | 1018.9 |
| 20260506105838 | 53 | 8 | 4.0 | 12.0 | 0.00 | 3.85 | 0.00 | 1 | 1018.9 |
| 20260506105626 | 53 | 220 | 3.0 | 12.0 | 0.00 | 3.85 | 0.00 | 1 | 1018.9 |
| 20260506104835 | 53 | 120 | 2.0 | 12.0 | 0.00 | 3.85 | 0.00 | 1 | 1018.9 |
| 20260506104335 | 53 | 197 | 4.0 | 10.0 | 0.00 | 3.85 | 0.00 | 1 | 1018.8 |
| 20260506103833 | 53 | 296 | 3.0 | 11.0 | 0.00 | 3.85 | 0.00 | 1 | 1018.8 |
| 20260506103332 | 53 | 281 | 5.0 | 12.0 | 0.00 | 3.85 | 0.00 | 1 | 1018.8 |
| 20260506102831 | 53 | 141 | 4.0 | 13.0 | 0.00 | 3.85 | 0.00 | 1 | 1018.8 |
| 20260506102331 | 53 | 269 | 5.0 | 13.0 | 0.00 | 3.85 | 0.00 | 1 | 1018.8 |
| 20260506101832 | 53 | 0 | 4.0 | 12.0 | 0.00 | 3.85 | 0.00 | 1 | 1018.7 |
| 20260506101333 | 53 | 62 | 4.0 | 11.0 | 0.00 | 3.85 | 0.00 | 1 | 1018.7 |
| 20260506100831 | 53 | 354 | 5.0 | 11.0 | 0.00 | 3.85 | 0.00 | 1 | 1018.7 |
| 20260506100331 | 53 | 327 | 3.0 | 7.0 | 0.00 | 3.85 | 0.00 | 1 | 1018.7 |
| 20260506095832 | 53 | 317 | 2.0 | 11.0 | 0.00 | 3.85 | 0.00 | 1 | 1018.8 |
| 20260506095330 | 53 | 0 | 3.0 | 11.0 | 0.00 | 3.85 | 0.00 | 1 | 1018.7 |
| 20260506094830 | 53 | 281 | 4.0 | 10.0 | 0.00 | 3.85 | 0.00 | 1 | 1018.8 |
| 20260506094329 | 53 | 296 | 4.0 | 9.0 | 0.00 | 3.85 | 0.00 | 1 | 1018.8 |
| 20260506093825 | 53 | 333 | 2.0 | 7.0 | 0.00 | 3.85 | 0.00 | 1 | 1018.8 |
| 20260506093319 | 53 | 0 | 2.0 | 11.0 | 0.00 | 3.86 | 0.00 | 1 | 1018.8 |
| 20260506092818 | 53 | 296 | 4.0 | 11.0 | 0.00 | 3.86 | 0.00 | 1 | 1018.8 |
| 20260506092313 | 54 | 282 | 3.0 | 10.0 | 0.00 | 3.86 | 0.00 | 1 | 1018.7 |
| 20260506091809 | 54 | 254 | 4.0 | 12.0 | 0.00 | 3.86 | 0.00 | 1 | 1018.6 |
| 20260506091307 | 53 | 272 | 4.0 | 12.0 | 0.00 | 3.86 | 0.00 | 1 | 1018.6 |
| 20260506090804 | 54 | 0 | 3.0 | 12.0 | 0.00 | 3.86 | 0.00 | 1 | 1018.6 |
| 20260506090304 | 54 | 0 | 4.0 | 12.0 | 0.00 | 3.86 | 0.00 | 1 | 1018.7 |
| 20260506090134 | 54 | 338 | 3.0 | 13.0 | 0.00 | 3.86 | 0.00 | 1 | 1018.6 |
| 20260506090129 | 54 | 337 | 5.0 | 12.0 | 0.00 | 3.86 | 0.00 | 1 | 1018.6 |
| 20260506084803 | 54 | 0 | 4.0 | 13.0 | 0.00 | 3.86 | 0.00 | 1 | 1018.7 |
| 20260506084556 | 54 | 0 | 4.0 | 14.0 | 0.00 | 3.86 | 0.00 | 1 | 1018.7 |
| 20260506084047 | 54 | 265 | 4.0 | 14.0 | 0.00 | 3.86 | 0.00 | 1 | 1018.7 |
| 20260506083305 | 54 | 4 | 4.0 | 11.0 | 0.00 | 3.86 | 0.00 | 1 | 1018.7 |
| 20260506082804 | 54 | 285 | 4.0 | 11.0 | 0.00 | 3.86 | 0.00 | 1 | 1018.7 |
| 20260506082305 | 54 | 286 | 4.0 | 11.0 | 0.00 | 3.87 | 0.00 | 1 | 1018.8 |
| 20260506081803 | 54 | 18 | 4.0 | 11.0 | 0.00 | 3.87 | 0.00 | 1 | 1018.8 |
| 20260506081303 | 54 | 241 | 3.0 | 10.0 | 0.00 | 3.87 | 0.00 | 1 | 1018.8 |
| 20260506080805 | 54 | 296 | 2.0 | 11.0 | 0.00 | 3.88 | 0.00 | 1 | 1018.9 |
| 20260506080303 | 54 | 0 | 2.0 | 12.0 | 0.00 | 3.88 | 0.00 | 1 | 1018.8 |
| 20260506073305 | 53 | 207 | 4.0 | 13.0 | 0.00 | 3.90 | 0.00 | 1 | 1018.5 |
| 20260506072804 | 53 | 1 | 5.0 | 13.0 | 0.00 | 3.90 | 0.00 | 1 | 1018.6 |
| 20260506072551 | 53 | 265 | 4.0 | 13.0 | 0.00 | 3.90 | 0.00 | 1 | 1018.5 |
| 20260506071804 | 53 | 321 | 5.0 | 13.0 | 0.00 | 3.91 | 0.00 | 1 | 1018.5 |
| 20260506071553 | 54 | 278 | 7.0 | 13.0 | 0.00 | 3.91 | 0.00 | 1 | 1018.4 |
| 20260506070804 | 54 | 97 | 1.0 | 13.0 | 0.00 | 3.91 | 0.00 | 1 | 1018.5 |
| 20260506070235 | 54 | 0 | 5.0 | 12.0 | 0.00 | 3.91 | 0.00 | 1 | 1018.4 |
| 20260506062229 | 54 | 282 | 6.0 | 12.0 | 0.00 | 3.91 | 3.91 | 1 | 1018.1 |
| 20260506061729 | 54 | 121 | 3.0 | 13.0 | 0.00 | 3.91 | 3.91 | 1 | 1018.1 |
| 20260506061229 | 54 | 327 | 3.0 | 16.0 | 0.00 | 3.91 | 3.91 | 1 | 1018.1 |
| 20260506060730 | 54 | 278 | 3.0 | 16.0 | 0.00 | 3.92 | 3.91 | 1 | 1018.1 |
| 20260506060229 | 54 | 0 | 2.0 | 13.0 | 0.00 | 3.92 | 3.91 | 1 | 1018.0 |
| 20260506051228 | 55 | 0 | 4.0 | 14.0 | 0.00 | 3.93 | 3.91 | 1 | 1017.8 |
| 20260506050728 | 55 | 320 | 7.0 | 16.0 | 0.00 | 3.94 | 3.91 | 1 | 1017.8 |
| 20260506050227 | 55 | 264 | 6.0 | 16.0 | 0.00 | 3.94 | 3.91 | 1 | 1017.8 |
| 20260506044727 | 55 | 18 | 4.0 | 15.0 | 0.00 | 3.95 | 3.91 | 1 | 1017.7 |
| 20260506044517 | 55 | 31 | 3.0 | 15.0 | 0.00 | 3.95 | 3.91 | 1 | 1017.6 |
| 20260506043728 | 55 | 282 | 4.0 | 17.0 | 0.00 | 3.95 | 3.91 | 1 | 1017.6 |
| 20260506043227 | 55 | 293 | 5.0 | 17.0 | 0.00 | 3.95 | 3.91 | 1 | 1017.6 |
| 20260506042726 | 55 | 303 | 5.0 | 14.0 | 0.00 | 3.95 | 3.91 | 1 | 1017.5 |
| 20260506042228 | 54 | 23 | 4.0 | 16.0 | 0.00 | 3.95 | 3.91 | 1 | 1017.4 |
| 20260506042014 | 54 | 14 | 5.0 | 16.0 | 0.00 | 3.95 | 3.91 | 1 | 1017.3 |
| 20260506041226 | 55 | 327 | 5.0 | 14.0 | 0.00 | 3.95 | 3.91 | 1 | 1017.3 |
| 20260506040726 | 55 | 0 | 6.0 | 17.0 | 0.00 | 3.95 | 3.91 | 1 | 1017.1 |
| 20260506040513 | 55 | 0 | 3.0 | 17.0 | 0.00 | 3.95 | 3.91 | 1 | 1017.0 |
| 20260506035726 | 55 | 183 | 4.0 | 13.0 | 0.00 | 3.95 | 3.91 | 1 | 1016.9 |
| 20260506035310 | 55 | 259 | 4.0 | 15.0 | 0.00 | 3.95 | 3.91 | 1 | 1016.8 |
| 20260506035257 | 55 | 13 | 5.0 | 15.0 | 0.00 | 3.95 | 3.91 | 1 | 1016.9 |
| 20260506034226 | 55 | 289 | 5.0 | 17.0 | 0.00 | 3.95 | 3.91 | 1 | 1016.8 |
| 20260506033727 | 55 | 0 | 5.0 | 17.0 | 0.00 | 3.95 | 3.91 | 1 | 1016.6 |
| 20260506033226 | 55 | 238 | 7.0 | 19.0 | 0.00 | 3.95 | 3.91 | 1 | 1016.6 |
| 20260506032725 | 55 | 142 | 10.0 | 19.0 | 0.00 | 3.95 | 3.91 | 1 | 1016.6 |
| 20260506032226 | 55 | 231 | 11.0 | 18.0 | 0.00 | 3.95 | 3.91 | 1 | 1016.5 |
| 20260506031726 | 55 | 24 | 4.0 | 16.0 | 0.00 | 3.95 | 3.91 | 1 | 1016.5 |
| 20260506031229 | 55 | 247 | 5.0 | 16.0 | 0.00 | 3.95 | 3.91 | 1 | 1016.4 |
| 20260506030726 | 55 | 274 | 5.0 | 16.0 | 0.00 | 3.95 | 3.91 | 1 | 1016.4 |
| 20260506030226 | 55 | 264 | 7.0 | 19.0 | 0.00 | 3.95 | 3.91 | 1 | 1016.3 |
| 20260506025726 | 55 | 0 | 6.0 | 20.0 | 0.00 | 3.95 | 3.91 | 1 | 1016.3 |
| 20260506025226 | 56 | 320 | 5.0 | 20.0 | 0.00 | 3.95 | 3.91 | 1 | 1016.1 |
| 20260506024726 | 56 | 197 | 6.0 | 21.0 | 0.00 | 3.95 | 3.91 | 1 | 1016.2 |
| 20260506024512 | 56 | 130 | 5.0 | 21.0 | 0.00 | 3.95 | 3.91 | 1 | 1016.2 |
| 20260506023724 | 56 | 264 | 9.0 | 19.0 | 0.00 | 3.95 | 3.91 | 1 | 1016.2 |
| 20260506023301 | 56 | 258 | 9.0 | 24.0 | 0.00 | 3.95 | 3.91 | 1 | 1016.1 |
| 20260506023248 | 56 | 250 | 6.0 | 24.0 | 0.00 | 3.95 | 3.91 | 1 | 1016.1 |
| 20260506022225 | 56 | 264 | 5.0 | 21.0 | 0.00 | 3.95 | 3.91 | 1 | 1016.1 |
| 20260506021725 | 56 | 230 | 9.0 | 21.0 | 0.00 | 3.95 | 3.91 | 1 | 1016.0 |
| 20260506021511 | 56 | 96 | 5.0 | 20.0 | 0.00 | 3.95 | 3.91 | 1 | 1015.9 |
| 20260506020723 | 56 | 13 | 9.0 | 22.0 | 0.00 | 3.95 | 3.91 | 1 | 1015.8 |
| 20260506020225 | 56 | 250 | 10.0 | 22.0 | 0.00 | 3.95 | 3.91 | 1 | 1015.9 |
| 20260506015724 | 57 | 265 | 10.0 | 22.0 | 0.00 | 3.95 | 3.91 | 1 | 1015.9 |
| 20260506015223 | 57 | 69 | 5.0 | 19.0 | 0.00 | 3.95 | 3.91 | 1 | 1015.8 |
| 20260506014724 | 57 | 224 | 11.0 | 23.0 | 0.00 | 3.95 | 3.91 | 1 | 1015.8 |
| 20260506014223 | 57 | 209 | 11.0 | 23.0 | 0.00 | 3.95 | 3.91 | 1 | 1015.8 |
| 20260506013724 | 58 | 227 | 9.0 | 21.0 | 0.00 | 3.95 | 3.91 | 1 | 1015.9 |
| 20260506013224 | 58 | 268 | 11.0 | 22.0 | 0.00 | 3.95 | 3.91 | 1 | 1015.9 |
| 20260506012722 | 58 | 238 | 11.0 | 24.0 | 0.00 | 3.95 | 3.91 | 1 | 1015.9 |
| 20260506012301 | 59 | 271 | 11.0 | 22.0 | 0.00 | 3.95 | 3.91 | 1 | 1015.9 |
| 20260506012249 | 58 | 271 | 11.0 | 24.0 | 0.00 | 3.95 | 3.91 | 1 | 1015.9 |
| 20260506011222 | 59 | 269 | 7.0 | 22.0 | 0.00 | 3.95 | 3.91 | 1 | 1015.9 |
| 20260506010724 | 58 | 348 | 11.0 | 23.0 | 3.84 | 3.95 | 3.91 | 1 | 1015.8 |
| 20260506010221 | 58 | 0 | 13.0 | 23.0 | 3.84 | 3.95 | 3.91 | 1 | 1015.8 |
| 20260506005723 | 59 | 289 | 9.0 | 22.0 | 3.84 | 0.11 | 3.91 | 1 | 1015.8 |
| 20260506005223 | 59 | 289 | 9.0 | 22.0 | 3.84 | 0.11 | 3.91 | 1 | 1015.8 |
| 20260506004723 | 59 | 251 | 14.0 | 23.0 | 3.84 | 0.11 | 3.91 | 1 | 1015.7 |
| 20260506004257 | 59 | 97 | 8.0 | 18.0 | 3.84 | 0.11 | 3.91 | 1 | 1015.7 |
| 20260506004246 | 59 | 272 | 15.0 | 23.0 | 3.84 | 0.11 | 3.91 | 1 | 1015.7 |